Year,Month,Day,Hour,Minute,Value (Times are PST for temperature in C)
2016,07,27,00,00,16.60
2016,07,27,00,01,16.60
2016,07,27,00,02,16.60
2016,07,27,00,03,16.60
2016,07,27,00,04,16.60
2016,07,27,00,05,16.60
2016,07,27,00,06,16.60
2016,07,27,00,07,16.70
2016,07,27,00,08,16.70
2016,07,27,00,09,16.70
2016,07,27,00,10,16.70
2016,07,27,00,11,16.70
2016,07,27,00,12,16.70
2016,07,27,00,13,16.70
2016,07,27,00,14,16.70
2016,07,27,00,15,16.70
2016,07,27,00,16,16.70
2016,07,27,00,17,16.70
2016,07,27,00,18,16.60
2016,07,27,00,19,16.60
2016,07,27,00,20,16.60
2016,07,27,00,21,16.60
2016,07,27,00,22,16.60
2016,07,27,00,23,16.60
2016,07,27,00,24,16.60
2016,07,27,00,25,16.60
2016,07,27,00,26,16.50
2016,07,27,00,27,16.40
2016,07,27,00,28,16.40
2016,07,27,00,29,16.40
2016,07,27,00,30,16.40
2016,07,27,00,31,16.40
2016,07,27,00,32,16.40
2016,07,27,00,33,16.40
2016,07,27,00,34,16.40
2016,07,27,00,35,16.40
2016,07,27,00,36,16.40
2016,07,27,00,37,16.40
2016,07,27,00,38,16.40
2016,07,27,00,39,16.40
2016,07,27,00,40,16.30
2016,07,27,00,41,16.30
2016,07,27,00,42,16.30
2016,07,27,00,43,16.30
2016,07,27,00,44,16.30
2016,07,27,00,45,16.30
2016,07,27,00,46,16.30
2016,07,27,00,47,16.30
2016,07,27,00,48,16.30
2016,07,27,00,49,16.30
2016,07,27,00,50,16.30
2016,07,27,00,51,16.20
2016,07,27,00,52,16.20
2016,07,27,00,53,16.20
2016,07,27,00,54,16.20
2016,07,27,00,55,16.10
2016,07,27,00,56,16.10
2016,07,27,00,57,16.10
2016,07,27,00,58,16.10
2016,07,27,00,59,16.10
2016,07,27,01,00,16.10
2016,07,27,01,01,16.10
2016,07,27,01,02,16.10
2016,07,27,01,03,16.10
2016,07,27,01,04,15.90
2016,07,27,01,05,15.90
2016,07,27,01,06,15.90
2016,07,27,01,07,15.90
2016,07,27,01,08,15.90
2016,07,27,01,09,15.90
2016,07,27,01,10,15.90
2016,07,27,01,11,15.90
2016,07,27,01,12,15.90
2016,07,27,01,13,15.90
2016,07,27,01,14,15.90
2016,07,27,01,15,15.90
2016,07,27,01,16,15.80
2016,07,27,01,17,15.80
2016,07,27,01,18,15.90
2016,07,27,01,19,15.90
2016,07,27,01,20,15.90
2016,07,27,01,21,15.90
2016,07,27,01,22,15.90
2016,07,27,01,23,15.90
2016,07,27,01,24,15.90
2016,07,27,01,25,15.90
2016,07,27,01,26,15.90
2016,07,27,01,27,15.90
2016,07,27,01,28,15.90
2016,07,27,01,29,15.90
2016,07,27,01,30,15.90
2016,07,27,01,31,15.90
2016,07,27,01,32,15.90
2016,07,27,01,33,15.80
2016,07,27,01,34,15.80
2016,07,27,01,35,15.90
2016,07,27,01,36,15.90
2016,07,27,01,37,15.90
2016,07,27,01,38,15.80
2016,07,27,01,39,15.80
2016,07,27,01,40,15.80
2016,07,27,01,41,15.80
2016,07,27,01,42,15.80
2016,07,27,01,43,15.80
2016,07,27,01,44,15.70
2016,07,27,01,45,15.70
2016,07,27,01,46,15.70
2016,07,27,01,47,15.60
2016,07,27,01,48,15.60
2016,07,27,01,49,15.60
2016,07,27,01,50,15.60
2016,07,27,01,51,15.60
2016,07,27,01,52,15.50
2016,07,27,01,53,15.50
2016,07,27,01,54,15.50
2016,07,27,01,55,15.50
2016,07,27,01,56,15.50
2016,07,27,01,57,15.50
2016,07,27,01,58,15.50
2016,07,27,01,59,15.50
2016,07,27,02,00,15.50
2016,07,27,02,01,15.40
2016,07,27,02,02,15.30
2016,07,27,02,03,15.30
2016,07,27,02,04,15.30
2016,07,27,02,05,15.30
2016,07,27,02,06,15.30
2016,07,27,02,07,15.20
2016,07,27,02,08,15.20
2016,07,27,02,09,15.20
2016,07,27,02,10,15.10
2016,07,27,02,11,15.10
2016,07,27,02,12,15.10
2016,07,27,02,13,15.00
2016,07,27,02,14,15.00
2016,07,27,02,15,15.00
2016,07,27,02,16,14.90
2016,07,27,02,17,14.90
2016,07,27,02,18,14.90
2016,07,27,02,19,14.90
2016,07,27,02,20,14.80
2016,07,27,02,21,14.80
2016,07,27,02,22,14.80
2016,07,27,02,23,14.80
2016,07,27,02,24,14.80
2016,07,27,02,25,14.80
2016,07,27,02,26,14.80
2016,07,27,02,27,14.70
2016,07,27,02,28,14.70
2016,07,27,02,29,14.70
2016,07,27,02,30,14.70
2016,07,27,02,31,14.70
2016,07,27,02,32,14.70
2016,07,27,02,33,14.70
2016,07,27,02,34,14.70
2016,07,27,02,35,14.70
2016,07,27,02,36,14.70
2016,07,27,02,37,14.70
2016,07,27,02,38,14.70
2016,07,27,02,39,14.70
2016,07,27,02,40,14.70
2016,07,27,02,41,14.70
2016,07,27,02,42,14.60
2016,07,27,02,43,14.60
2016,07,27,02,44,14.60
2016,07,27,02,45,14.60
2016,07,27,02,46,14.60
2016,07,27,02,47,14.60
2016,07,27,02,48,14.60
2016,07,27,02,49,14.60
2016,07,27,02,50,14.60
2016,07,27,02,51,14.50
2016,07,27,02,52,14.50
2016,07,27,02,53,14.50
2016,07,27,02,54,14.60
2016,07,27,02,55,14.60
2016,07,27,02,56,14.60
2016,07,27,02,57,14.60
2016,07,27,02,58,14.60
2016,07,27,02,59,14.60
2016,07,27,03,00,14.60
2016,07,27,03,01,14.60
2016,07,27,03,02,14.70
2016,07,27,03,03,14.70
2016,07,27,03,04,14.70
2016,07,27,03,05,14.70
2016,07,27,03,06,14.70
2016,07,27,03,07,14.70
2016,07,27,03,08,14.70
2016,07,27,03,09,14.70
2016,07,27,03,10,14.70
2016,07,27,03,11,14.70
2016,07,27,03,12,14.70
2016,07,27,03,13,14.70
2016,07,27,03,14,14.70
2016,07,27,03,15,14.70
2016,07,27,03,16,14.70
2016,07,27,03,17,14.70
2016,07,27,03,18,14.70
2016,07,27,03,19,14.60
2016,07,27,03,20,14.60
2016,07,27,03,21,14.60
2016,07,27,03,22,14.60
2016,07,27,03,23,14.60
2016,07,27,03,24,14.60
2016,07,27,03,25,14.60
2016,07,27,03,26,14.60
2016,07,27,03,27,14.50
2016,07,27,03,28,14.50
2016,07,27,03,29,14.50
2016,07,27,03,30,14.50
2016,07,27,03,31,14.40
2016,07,27,03,32,14.40
2016,07,27,03,33,14.40
2016,07,27,03,34,14.40
2016,07,27,03,35,14.40
2016,07,27,03,36,14.30
2016,07,27,03,37,14.30
2016,07,27,03,38,14.30
2016,07,27,03,39,13.80
2016,07,27,03,40,13.70
2016,07,27,03,41,13.70
2016,07,27,03,42,13.70
2016,07,27,03,43,13.70
2016,07,27,03,44,13.70
2016,07,27,03,45,13.70
2016,07,27,03,46,13.70
2016,07,27,03,47,13.60
2016,07,27,03,48,13.60
2016,07,27,03,49,13.60
2016,07,27,03,50,13.60
2016,07,27,03,51,13.60
2016,07,27,03,52,13.60
2016,07,27,03,53,13.60
2016,07,27,03,54,13.50
2016,07,27,03,55,13.50
2016,07,27,03,56,13.50
2016,07,27,03,57,13.50
2016,07,27,03,58,13.50
2016,07,27,03,59,13.40
2016,07,27,04,00,13.40
2016,07,27,04,01,13.40
2016,07,27,04,02,13.40
2016,07,27,04,03,13.40
2016,07,27,04,04,13.40
2016,07,27,04,05,13.40
2016,07,27,04,06,13.40
2016,07,27,04,07,13.40
2016,07,27,04,08,13.40
2016,07,27,04,09,13.40
2016,07,27,04,10,13.30
2016,07,27,04,11,13.30
2016,07,27,04,12,13.30
2016,07,27,04,13,13.30
2016,07,27,04,14,13.30
2016,07,27,04,15,13.30
2016,07,27,04,16,13.30
2016,07,27,04,17,13.30
2016,07,27,04,18,13.30
2016,07,27,04,19,13.30
2016,07,27,04,20,13.30
2016,07,27,04,21,13.30
2016,07,27,04,22,13.30
2016,07,27,04,23,13.30
2016,07,27,04,24,13.30
2016,07,27,04,25,13.30
2016,07,27,04,26,13.20
2016,07,27,04,27,13.20
2016,07,27,04,28,13.20
2016,07,27,04,29,13.20
2016,07,27,04,30,13.10
2016,07,27,04,31,13.10
2016,07,27,04,32,13.10
2016,07,27,04,33,13.10
2016,07,27,04,34,13.10
2016,07,27,04,35,13.10
2016,07,27,04,36,13.10
2016,07,27,04,37,13.10
2016,07,27,04,38,13.10
2016,07,27,04,39,13.10
2016,07,27,04,40,13.10
2016,07,27,04,41,13.10
2016,07,27,04,42,13.10
2016,07,27,04,43,13.10
2016,07,27,04,44,13.10
2016,07,27,04,45,13.10
2016,07,27,04,46,13.00
2016,07,27,04,47,13.00
2016,07,27,04,48,13.00
2016,07,27,04,49,13.00
2016,07,27,04,50,13.00
2016,07,27,04,51,13.00
2016,07,27,04,52,13.00
2016,07,27,04,53,13.00
2016,07,27,04,54,13.00
2016,07,27,04,55,12.90
2016,07,27,04,56,12.90
2016,07,27,04,57,12.90
2016,07,27,04,58,12.90
2016,07,27,04,59,12.90
2016,07,27,05,00,12.90
2016,07,27,05,01,12.90
2016,07,27,05,02,12.90
2016,07,27,05,03,12.90
2016,07,27,05,04,12.90
2016,07,27,05,05,12.90
2016,07,27,05,06,12.90
2016,07,27,05,07,12.90
2016,07,27,05,08,12.90
2016,07,27,05,09,12.90
2016,07,27,05,10,12.90
2016,07,27,05,11,12.80
2016,07,27,05,12,12.80
2016,07,27,05,13,12.80
2016,07,27,05,14,12.80
2016,07,27,05,15,12.80
2016,07,27,05,16,12.80
2016,07,27,05,17,12.80
2016,07,27,05,18,12.80
2016,07,27,05,19,12.70
2016,07,27,05,20,12.70
2016,07,27,05,21,12.70
2016,07,27,05,22,12.70
2016,07,27,05,23,12.70
2016,07,27,05,24,12.70
2016,07,27,05,25,12.70
2016,07,27,05,26,12.70
2016,07,27,05,27,12.70
2016,07,27,05,28,12.70
2016,07,27,05,29,12.70
2016,07,27,05,30,12.70
2016,07,27,05,31,12.70
2016,07,27,05,32,12.70
2016,07,27,05,33,12.70
2016,07,27,05,34,12.70
2016,07,27,05,35,12.70
2016,07,27,05,36,12.70
2016,07,27,05,37,12.70
2016,07,27,05,38,12.70
2016,07,27,05,39,12.70
2016,07,27,05,40,12.70
2016,07,27,05,41,12.70
2016,07,27,05,42,12.70
2016,07,27,05,43,12.70
2016,07,27,05,44,12.70
2016,07,27,05,45,12.70
2016,07,27,05,46,12.70
2016,07,27,05,47,12.70
2016,07,27,05,48,12.70
2016,07,27,05,49,12.70
2016,07,27,05,50,12.60
2016,07,27,05,51,12.60
2016,07,27,05,52,12.60
2016,07,27,05,53,12.60
2016,07,27,05,54,12.60
2016,07,27,05,55,12.60
2016,07,27,05,56,12.60
2016,07,27,05,57,12.60
2016,07,27,05,58,12.60
2016,07,27,05,59,12.60
2016,07,27,06,00,12.60
2016,07,27,06,01,12.60
2016,07,27,06,02,12.60
2016,07,27,06,03,12.60
2016,07,27,06,04,12.60
2016,07,27,06,05,12.60
2016,07,27,06,06,12.60
2016,07,27,06,07,12.60
2016,07,27,06,08,12.60
2016,07,27,06,09,12.60
2016,07,27,06,10,12.60
2016,07,27,06,11,12.60
2016,07,27,06,12,12.60
2016,07,27,06,13,12.60
2016,07,27,06,14,12.60
2016,07,27,06,15,12.60
2016,07,27,06,16,12.60
2016,07,27,06,17,12.60
2016,07,27,06,18,12.60
2016,07,27,06,19,12.70
2016,07,27,06,20,12.70
2016,07,27,06,21,12.70
2016,07,27,06,22,12.70
2016,07,27,06,23,12.70
2016,07,27,06,24,12.80
2016,07,27,06,25,12.80
2016,07,27,06,26,12.80
2016,07,27,06,27,12.80
2016,07,27,06,28,12.90
2016,07,27,06,29,12.90
2016,07,27,06,30,12.90
2016,07,27,06,31,12.90
2016,07,27,06,32,13.00
2016,07,27,06,33,13.00
2016,07,27,06,34,13.00
2016,07,27,06,35,13.10
2016,07,27,06,36,13.10
2016,07,27,06,37,13.10
2016,07,27,06,38,13.10
2016,07,27,06,39,13.20
2016,07,27,06,40,13.20
2016,07,27,06,41,13.20
2016,07,27,06,42,13.30
2016,07,27,06,43,13.30
2016,07,27,06,44,13.30
2016,07,27,06,45,13.40
2016,07,27,06,46,13.40
2016,07,27,06,47,13.50
2016,07,27,06,48,13.50
2016,07,27,06,49,13.60
2016,07,27,06,50,13.60
2016,07,27,06,51,13.70
2016,07,27,06,52,13.70
2016,07,27,06,53,13.80
2016,07,27,06,54,13.80
2016,07,27,06,55,13.90
2016,07,27,06,56,13.90
2016,07,27,06,57,14.00
2016,07,27,06,58,14.10
2016,07,27,06,59,14.10
2016,07,27,07,00,14.20
2016,07,27,07,01,14.20
2016,07,27,07,02,14.30
2016,07,27,07,03,14.30
2016,07,27,07,04,14.40
2016,07,27,07,05,14.40
2016,07,27,07,06,14.50
2016,07,27,07,07,14.60
2016,07,27,07,08,14.60
2016,07,27,07,09,14.70
2016,07,27,07,10,14.80
2016,07,27,07,11,14.90
2016,07,27,07,12,14.90
2016,07,27,07,13,15.00
2016,07,27,07,14,15.10
2016,07,27,07,15,15.10
2016,07,27,07,16,15.20
2016,07,27,07,17,15.30
2016,07,27,07,18,15.30
2016,07,27,07,19,15.50
2016,07,27,07,20,15.60
2016,07,27,07,21,15.70
2016,07,27,07,22,15.80
2016,07,27,07,23,15.90
2016,07,27,07,24,16.00
2016,07,27,07,25,16.10
2016,07,27,07,26,16.20
2016,07,27,07,27,16.30
2016,07,27,07,28,16.40
2016,07,27,07,29,16.50
2016,07,27,07,30,16.50
2016,07,27,07,31,16.60
2016,07,27,07,32,16.60
2016,07,27,07,33,16.70
2016,07,27,07,34,16.80
2016,07,27,07,35,16.80
2016,07,27,07,36,16.90
2016,07,27,07,37,16.90
2016,07,27,07,38,16.90
2016,07,27,07,39,17.00
2016,07,27,07,40,17.10
2016,07,27,07,41,17.10
2016,07,27,07,42,17.10
2016,07,27,07,43,17.10
2016,07,27,07,44,17.10
2016,07,27,07,45,17.10
2016,07,27,07,46,17.10
2016,07,27,07,47,17.10
2016,07,27,07,48,17.10
2016,07,27,07,49,17.10
2016,07,27,07,50,17.10
2016,07,27,07,51,17.10
2016,07,27,07,52,17.10
2016,07,27,07,53,17.10
2016,07,27,07,54,17.10
2016,07,27,07,55,17.20
2016,07,27,07,56,17.20
2016,07,27,07,57,17.20
2016,07,27,07,58,17.30
2016,07,27,07,59,17.30
2016,07,27,08,00,17.40
2016,07,27,08,01,17.40
2016,07,27,08,02,17.50
2016,07,27,08,03,17.50
2016,07,27,08,04,17.50
2016,07,27,08,05,17.60
2016,07,27,08,06,17.60
2016,07,27,08,07,17.60
2016,07,27,08,08,17.70
2016,07,27,08,09,17.80
2016,07,27,08,10,17.90
2016,07,27,08,11,17.90
2016,07,27,08,12,18.00
2016,07,27,08,13,18.10
2016,07,27,08,14,18.10
2016,07,27,08,15,18.20
2016,07,27,08,16,18.20
2016,07,27,08,17,18.30
2016,07,27,08,18,18.30
2016,07,27,08,19,18.20
2016,07,27,08,20,18.20
2016,07,27,08,21,18.20
2016,07,27,08,22,18.20
2016,07,27,08,23,18.20
2016,07,27,08,24,18.20
2016,07,27,08,25,18.30
2016,07,27,08,26,18.30
2016,07,27,08,27,18.30
2016,07,27,08,28,18.30
2016,07,27,08,29,18.40
2016,07,27,08,30,18.40
2016,07,27,08,31,18.40
2016,07,27,08,32,18.50
2016,07,27,08,33,18.50
2016,07,27,08,34,18.50
2016,07,27,08,35,18.50
2016,07,27,08,36,18.50
2016,07,27,08,37,18.40
2016,07,27,08,38,18.40
2016,07,27,08,39,18.40
2016,07,27,08,40,18.40
2016,07,27,08,41,18.40
2016,07,27,08,42,18.40
2016,07,27,08,43,18.40
2016,07,27,08,44,18.40
2016,07,27,08,45,18.40
2016,07,27,08,46,18.40
2016,07,27,08,47,18.40
2016,07,27,08,48,18.40
2016,07,27,08,49,18.40
2016,07,27,08,50,18.40
2016,07,27,08,51,18.40
2016,07,27,08,52,18.30
2016,07,27,08,53,18.30
2016,07,27,08,54,18.20
2016,07,27,08,55,18.20
2016,07,27,08,56,18.20
2016,07,27,08,57,18.20
2016,07,27,08,58,18.20
2016,07,27,08,59,18.30
2016,07,27,09,00,18.30
2016,07,27,09,01,18.30
2016,07,27,09,02,18.40
2016,07,27,09,03,18.40
2016,07,27,09,04,18.50
2016,07,27,09,05,18.40
2016,07,27,09,06,18.40
2016,07,27,09,07,18.40
2016,07,27,09,08,18.40
2016,07,27,09,09,18.30
2016,07,27,09,10,18.30
2016,07,27,09,11,18.30
2016,07,27,09,12,18.30
2016,07,27,09,13,18.40
2016,07,27,09,14,18.40
2016,07,27,09,15,18.40
2016,07,27,09,16,18.40
2016,07,27,09,17,18.50
2016,07,27,09,18,18.60
2016,07,27,09,19,18.60
2016,07,27,09,20,18.60
2016,07,27,09,21,18.60
2016,07,27,09,22,18.60
2016,07,27,09,23,18.70
2016,07,27,09,24,18.70
2016,07,27,09,25,18.70
2016,07,27,09,26,18.70
2016,07,27,09,27,18.70
2016,07,27,09,28,18.70
2016,07,27,09,29,18.70
2016,07,27,09,30,18.70
2016,07,27,09,31,18.70
2016,07,27,09,32,18.60
2016,07,27,09,33,18.60
2016,07,27,09,34,18.60
2016,07,27,09,35,18.60
2016,07,27,09,36,18.60
2016,07,27,09,37,18.60
2016,07,27,09,38,18.60
2016,07,27,09,39,18.60
2016,07,27,09,40,18.60
2016,07,27,09,41,18.60
2016,07,27,09,42,18.60
2016,07,27,09,43,18.60
2016,07,27,09,44,18.50
2016,07,27,09,45,18.50
2016,07,27,09,46,18.50
2016,07,27,09,47,18.50
2016,07,27,09,48,18.40
2016,07,27,09,49,18.50
2016,07,27,09,50,18.50
2016,07,27,09,51,18.60
2016,07,27,09,52,18.60
2016,07,27,09,53,18.60
2016,07,27,09,54,18.60
2016,07,27,09,55,18.60
2016,07,27,09,56,18.60
2016,07,27,09,57,18.60
2016,07,27,09,58,18.60
2016,07,27,09,59,18.60
2016,07,27,10,00,18.60
2016,07,27,10,01,18.70
2016,07,27,10,02,18.70
2016,07,27,10,03,18.80
2016,07,27,10,04,18.80
2016,07,27,10,05,18.90
2016,07,27,10,06,18.90
2016,07,27,10,07,19.00
2016,07,27,10,08,19.10
2016,07,27,10,09,19.10
2016,07,27,10,10,19.20
2016,07,27,10,11,19.20
2016,07,27,10,12,19.30
2016,07,27,10,13,19.30
2016,07,27,10,14,19.30
2016,07,27,10,15,19.40
2016,07,27,10,16,19.50
2016,07,27,10,17,19.50
2016,07,27,10,18,19.60
2016,07,27,10,19,19.70
2016,07,27,10,20,19.80
2016,07,27,10,21,19.80
2016,07,27,10,22,19.80
2016,07,27,10,23,19.90
2016,07,27,10,24,19.90
2016,07,27,10,25,19.90
2016,07,27,10,26,19.90
2016,07,27,10,27,19.90
2016,07,27,10,28,19.90
2016,07,27,10,29,19.90
2016,07,27,10,30,20.00
2016,07,27,10,31,20.00
2016,07,27,10,32,20.10
2016,07,27,10,33,20.10
2016,07,27,10,34,20.10
2016,07,27,10,35,20.20
2016,07,27,10,36,20.20
2016,07,27,10,37,20.30
2016,07,27,10,38,20.30
2016,07,27,10,39,20.40
2016,07,27,10,40,20.40
2016,07,27,10,41,20.50
2016,07,27,10,42,20.50
2016,07,27,10,43,20.60
2016,07,27,10,44,20.70
2016,07,27,10,45,20.80
2016,07,27,10,46,20.90
2016,07,27,10,47,21.00
2016,07,27,10,48,21.10
2016,07,27,10,49,21.10
2016,07,27,10,50,21.20
2016,07,27,10,51,21.30
2016,07,27,10,52,21.30
2016,07,27,10,53,21.30
2016,07,27,10,54,21.30
2016,07,27,10,55,21.30
2016,07,27,10,56,21.30
2016,07,27,10,57,21.40
2016,07,27,10,58,21.40
2016,07,27,10,59,21.50
2016,07,27,11,00,21.60
2016,07,27,11,01,21.70
2016,07,27,11,02,21.70
2016,07,27,11,03,21.70
2016,07,27,11,04,21.60
2016,07,27,11,05,21.60
2016,07,27,11,06,21.50
2016,07,27,11,07,21.40
2016,07,27,11,08,21.30
2016,07,27,11,09,21.30
2016,07,27,11,10,21.30
2016,07,27,11,11,21.30
2016,07,27,11,12,21.40
2016,07,27,11,13,21.40
2016,07,27,11,14,21.50
2016,07,27,11,15,21.60
2016,07,27,11,16,21.60
2016,07,27,11,17,21.70
2016,07,27,11,18,21.80
2016,07,27,11,19,21.90
2016,07,27,11,20,22.00
2016,07,27,11,21,22.10
2016,07,27,11,22,22.20
2016,07,27,11,23,22.30
2016,07,27,11,24,22.30
2016,07,27,11,25,22.30
2016,07,27,11,26,22.30
2016,07,27,11,27,22.40
2016,07,27,11,28,22.40
2016,07,27,11,29,22.40
2016,07,27,11,30,22.40
2016,07,27,11,31,22.30
2016,07,27,11,32,22.40
2016,07,27,11,33,22.40
2016,07,27,11,34,22.40
2016,07,27,11,35,22.30
2016,07,27,11,36,22.30
2016,07,27,11,37,22.20
2016,07,27,11,38,22.20
2016,07,27,11,39,22.20
2016,07,27,11,40,22.20
2016,07,27,11,41,22.10
2016,07,27,11,42,22.00
2016,07,27,11,43,21.90
2016,07,27,11,44,21.80
2016,07,27,11,45,21.70
2016,07,27,11,46,21.70
2016,07,27,11,47,21.70
2016,07,27,11,48,21.70
2016,07,27,11,49,21.70
2016,07,27,11,50,21.70
2016,07,27,11,51,21.60
2016,07,27,11,52,21.60
2016,07,27,11,53,21.60
2016,07,27,11,54,21.60
2016,07,27,11,55,21.50
2016,07,27,11,56,21.50
2016,07,27,11,57,21.50
2016,07,27,11,58,21.50
2016,07,27,11,59,21.50
2016,07,27,12,00,21.60
2016,07,27,12,01,21.60
2016,07,27,12,02,21.70
2016,07,27,12,03,21.70
2016,07,27,12,04,21.80
2016,07,27,12,05,21.80
2016,07,27,12,06,21.70
2016,07,27,12,07,21.70
2016,07,27,12,08,21.70
2016,07,27,12,09,21.60
2016,07,27,12,10,21.50
2016,07,27,12,11,21.40
2016,07,27,12,12,21.30
2016,07,27,12,13,21.30
2016,07,27,12,14,21.30
2016,07,27,12,15,21.40
2016,07,27,12,16,21.40
2016,07,27,12,17,21.50
2016,07,27,12,18,21.60
2016,07,27,12,19,21.70
2016,07,27,12,20,21.80
2016,07,27,12,21,21.80
2016,07,27,12,22,21.90
2016,07,27,12,23,21.80
2016,07,27,12,24,21.80
2016,07,27,12,25,21.70
2016,07,27,12,26,21.70
2016,07,27,12,27,21.70
2016,07,27,12,28,21.70
2016,07,27,12,29,21.60
2016,07,27,12,30,21.60
2016,07,27,12,31,21.60
2016,07,27,12,32,21.60
2016,07,27,12,33,21.60
2016,07,27,12,34,21.50
2016,07,27,12,35,21.50
2016,07,27,12,36,21.50
2016,07,27,12,37,21.60
2016,07,27,12,38,21.60
2016,07,27,12,39,21.80
2016,07,27,12,40,21.90
2016,07,27,12,41,21.90
2016,07,27,12,42,22.00
2016,07,27,12,43,22.10
2016,07,27,12,44,22.10
2016,07,27,12,45,22.20
2016,07,27,12,46,22.20
2016,07,27,12,47,22.20
2016,07,27,12,48,22.20
2016,07,27,12,49,22.30
2016,07,27,12,50,22.30
2016,07,27,12,51,22.20
2016,07,27,12,52,22.20
2016,07,27,12,53,22.10
2016,07,27,12,54,22.10
2016,07,27,12,55,22.00
2016,07,27,12,56,21.90
2016,07,27,12,57,21.90
2016,07,27,12,58,21.90
2016,07,27,12,59,22.00
2016,07,27,13,00,22.00
2016,07,27,13,01,22.00
2016,07,27,13,02,22.00
2016,07,27,13,03,22.10
2016,07,27,13,04,22.20
2016,07,27,13,05,22.30
2016,07,27,13,06,22.30
2016,07,27,13,07,22.30
2016,07,27,13,08,22.30
2016,07,27,13,09,22.30
2016,07,27,13,10,22.30
2016,07,27,13,11,22.40
2016,07,27,13,12,22.40
2016,07,27,13,13,22.40
2016,07,27,13,14,22.40
2016,07,27,13,15,22.40
2016,07,27,13,16,22.40
2016,07,27,13,17,22.40
2016,07,27,13,18,22.50
2016,07,27,13,19,22.60
2016,07,27,13,20,22.70
2016,07,27,13,21,22.80
2016,07,27,13,22,22.80
2016,07,27,13,23,22.70
2016,07,27,13,24,22.50
2016,07,27,13,25,22.50
2016,07,27,13,26,22.50
2016,07,27,13,27,22.50
2016,07,27,13,28,22.50
2016,07,27,13,29,22.50
2016,07,27,13,30,22.50
2016,07,27,13,31,22.40
2016,07,27,13,32,22.50
2016,07,27,13,33,22.50
2016,07,27,13,34,22.60
2016,07,27,13,35,22.60
2016,07,27,13,36,22.60
2016,07,27,13,37,22.60
2016,07,27,13,38,22.60
2016,07,27,13,39,22.60
2016,07,27,13,40,22.60
2016,07,27,13,41,22.60
2016,07,27,13,42,22.50
2016,07,27,13,43,22.50
2016,07,27,13,44,22.60
2016,07,27,13,45,22.60
2016,07,27,13,46,22.60
2016,07,27,13,47,22.70
2016,07,27,13,48,22.80
2016,07,27,13,49,22.80
2016,07,27,13,50,22.70
2016,07,27,13,51,22.60
2016,07,27,13,52,22.60
2016,07,27,13,53,22.60
2016,07,27,13,54,22.60
2016,07,27,13,55,22.60
2016,07,27,13,56,22.60
2016,07,27,13,57,22.60
2016,07,27,13,58,22.60
2016,07,27,13,59,22.70
2016,07,27,14,00,22.70
2016,07,27,14,01,22.70
2016,07,27,14,02,22.70
2016,07,27,14,03,22.70
2016,07,27,14,04,22.70
2016,07,27,14,05,22.70
2016,07,27,14,06,22.80
2016,07,27,14,07,22.80
2016,07,27,14,08,22.80
2016,07,27,14,09,22.80
2016,07,27,14,10,22.70
2016,07,27,14,11,22.70
2016,07,27,14,12,22.70
2016,07,27,14,13,22.70
2016,07,27,14,14,22.70
2016,07,27,14,15,22.70
2016,07,27,14,16,22.70
2016,07,27,14,17,22.80
2016,07,27,14,18,22.80
2016,07,27,14,19,22.90
2016,07,27,14,20,23.00
2016,07,27,14,21,23.00
2016,07,27,14,22,23.00
2016,07,27,14,23,23.10
2016,07,27,14,24,23.10
2016,07,27,14,25,23.20
2016,07,27,14,26,23.30
2016,07,27,14,27,23.30
2016,07,27,14,28,23.30
2016,07,27,14,29,23.30
2016,07,27,14,30,23.30
2016,07,27,14,31,23.30
2016,07,27,14,32,23.30
2016,07,27,14,33,23.40
2016,07,27,14,34,23.40
2016,07,27,14,35,23.50
2016,07,27,14,36,23.60
2016,07,27,14,37,23.60
2016,07,27,14,38,23.60
2016,07,27,14,39,23.60
2016,07,27,14,40,23.50
2016,07,27,14,41,23.60
2016,07,27,14,42,23.60
2016,07,27,14,43,23.60
2016,07,27,14,44,23.60
2016,07,27,14,45,23.60
2016,07,27,14,46,23.50
2016,07,27,14,47,23.50
2016,07,27,14,48,23.50
2016,07,27,14,49,23.50
2016,07,27,14,50,23.50
2016,07,27,14,51,23.40
2016,07,27,14,52,23.40
2016,07,27,14,53,23.40
2016,07,27,14,54,23.40
2016,07,27,14,55,23.50
2016,07,27,14,56,23.50
2016,07,27,14,57,23.60
2016,07,27,14,58,23.60
2016,07,27,14,59,23.60
2016,07,27,15,00,23.50
2016,07,27,15,01,23.40
2016,07,27,15,02,23.30
2016,07,27,15,03,23.20
2016,07,27,15,04,23.20
2016,07,27,15,05,23.20
2016,07,27,15,06,23.20
2016,07,27,15,07,23.20
2016,07,27,15,08,23.20
2016,07,27,15,09,23.20
2016,07,27,15,10,23.20
2016,07,27,15,11,23.20
2016,07,27,15,12,23.20
2016,07,27,15,13,23.20
2016,07,27,15,14,23.20
2016,07,27,15,15,23.20
2016,07,27,15,16,23.20
2016,07,27,15,17,23.20
2016,07,27,15,18,23.20
2016,07,27,15,19,23.20
2016,07,27,15,20,23.20
2016,07,27,15,21,23.20
2016,07,27,15,22,23.20
2016,07,27,15,23,23.20
2016,07,27,15,24,23.20
2016,07,27,15,25,23.20
2016,07,27,15,26,23.30
2016,07,27,15,27,23.30
2016,07,27,15,28,23.30
2016,07,27,15,29,23.30
2016,07,27,15,30,23.20
2016,07,27,15,31,23.20
2016,07,27,15,32,23.20
2016,07,27,15,33,23.20
2016,07,27,15,34,23.20
2016,07,27,15,35,23.20
2016,07,27,15,36,23.20
2016,07,27,15,37,23.30
2016,07,27,15,38,23.30
2016,07,27,15,39,23.30
2016,07,27,15,40,23.30
2016,07,27,15,41,23.30
2016,07,27,15,42,23.30
2016,07,27,15,43,23.30
2016,07,27,15,44,23.30
2016,07,27,15,45,23.20
2016,07,27,15,46,23.20
2016,07,27,15,47,23.20
2016,07,27,15,48,23.20
2016,07,27,15,49,23.20
2016,07,27,15,50,23.20
2016,07,27,15,51,23.20
2016,07,27,15,52,23.20
2016,07,27,15,53,23.10
2016,07,27,15,54,23.10
2016,07,27,15,55,23.00
2016,07,27,15,56,23.00
2016,07,27,15,57,22.90
2016,07,27,15,58,22.90
2016,07,27,15,59,22.90
2016,07,27,16,00,22.90
2016,07,27,16,01,23.00
2016,07,27,16,02,23.00
2016,07,27,16,03,23.00
2016,07,27,16,04,23.10
2016,07,27,16,05,23.10
2016,07,27,16,06,23.10
2016,07,27,16,07,23.10
2016,07,27,16,08,23.10
2016,07,27,16,09,23.10
2016,07,27,16,10,23.10
2016,07,27,16,11,23.10
2016,07,27,16,12,23.20
2016,07,27,16,13,23.20
2016,07,27,16,14,23.20
2016,07,27,16,15,23.20
2016,07,27,16,16,23.10
2016,07,27,16,17,23.10
2016,07,27,16,18,23.00
2016,07,27,16,19,23.00
2016,07,27,16,20,22.90
2016,07,27,16,21,22.90
2016,07,27,16,22,22.90
2016,07,27,16,23,22.90
2016,07,27,16,24,23.00
2016,07,27,16,25,23.00
2016,07,27,16,26,23.00
2016,07,27,16,27,22.90
2016,07,27,16,28,22.90
2016,07,27,16,29,22.90
2016,07,27,16,30,23.00
2016,07,27,16,31,23.00
2016,07,27,16,32,23.10
2016,07,27,16,33,23.20
2016,07,27,16,34,23.30
2016,07,27,16,35,23.30
2016,07,27,16,36,23.30
2016,07,27,16,37,23.20
2016,07,27,16,38,23.10
2016,07,27,16,39,23.10
2016,07,27,16,40,23.00
2016,07,27,16,41,23.00
2016,07,27,16,42,22.90
2016,07,27,16,43,22.90
2016,07,27,16,44,22.90
2016,07,27,16,45,22.90
2016,07,27,16,46,22.90
2016,07,27,16,47,22.90
2016,07,27,16,48,22.90
2016,07,27,16,49,22.80
2016,07,27,16,50,22.80
2016,07,27,16,51,22.70
2016,07,27,16,52,22.60
2016,07,27,16,53,22.60
2016,07,27,16,54,22.60
2016,07,27,16,55,22.50
2016,07,27,16,56,22.50
2016,07,27,16,57,22.50
2016,07,27,16,58,22.50
2016,07,27,16,59,22.40
2016,07,27,17,00,22.50
2016,07,27,17,01,22.50
2016,07,27,17,02,22.50
2016,07,27,17,03,22.50
2016,07,27,17,04,22.50
2016,07,27,17,05,22.60
2016,07,27,17,06,22.60
2016,07,27,17,07,22.70
2016,07,27,17,08,22.70
2016,07,27,17,09,22.80
2016,07,27,17,10,22.90
2016,07,27,17,11,23.00
2016,07,27,17,12,23.00
2016,07,27,17,13,23.10
2016,07,27,17,14,23.10
2016,07,27,17,15,23.10
2016,07,27,17,16,23.10
2016,07,27,17,17,23.20
2016,07,27,17,18,23.20
2016,07,27,17,19,23.20